Weather History for KDEW - April, 2014

Change the Weather History Date:

Monday, April 14, 2014

  Actual Average Record
Temperature  
Mean Temperature 43 °F 44 °F  
Max Temperature 63 °F 57 °F 63 °F (2014)
Min Temperature 22 °F 32 °F 22 °F (2014)
Degree Days  
Heating Degree Days 22 21  
Month to date heating degree days 287 304  
Since 1 July heating degree days 6539 6511  
Cooling Degree Days 0 0  
Month to date cooling degree days 0 0  
Year to date cooling degree days 0 0  
Moisture  
Dew Point 21 °F    
Average Humidity 50    
Maximum Humidity 84    
Minimum Humidity 16    
Precipitation  
Precipitation 0.00 in 0.05 in 0.58 in (2002)
Month to date precipitation 0.19 0.88  
Year to date precipitation 8.07 7.20  
Sea Level Pressure  
Sea Level Pressure 30.13 in    
Wind  
Wind Speed 5 mph (South)    
Max Wind Speed 16 mph    
Max Gust Speed 19 mph    
Visibility 10 miles    
Events      
T = Trace of Precipitation, MM = Missing Value Source: NWS Daily Summary

Daily Weather History Graph

Daily Weather History Graph

Search for Another Location

Airport or City:

Trip Planner

Search our weather history database for the weather conditions in past years. The results will help you decide how hot, cold, wet, or windy it might be!

Date:

Astronomy

Apr. 14, 2014 Rise Set
Actual Time 6:02 AM PDT 7:38 PM PDT
Civil Twilight 5:29 AM PDT 8:11 PM PDT
Nautical Twilight 4:49 AM PDT 8:51 PM PDT
Astronomical Twilight 4:06 AM PDT 9:34 PM PDT
Moon 7:21 PM PDT (4/14) 5:39 AM PDT (4/14)
Length of Visible Light 14h 41m
Length of Day
13h 36m
Full, 100% of the Moon is Illuminated
Apr 14
Full
Apr 15
Full
Apr 22
Last Quarter
Apr 28
New
May 6
First Quarter

Hourly Weather History & Observations

Time (PDT) Temp. Windchill Dew Point Humidity Pressure Visibility Wind Dir Wind Speed Gust Speed Precip Events Conditions
12:53 AM 30.0 °F - 19.9 °F 66% 30.31 in 10.0 mi Calm Calm - N/A   Clear
2:53 AM 27.0 °F - 19.0 °F 72% 30.31 in 10.0 mi Calm Calm - N/A   Clear
3:53 AM 24.1 °F - 19.0 °F 81% 30.30 in 10.0 mi Calm Calm - N/A   Clear
4:53 AM 26.1 °F - 19.0 °F 75% 30.29 in 10.0 mi Calm Calm - N/A   Clear
5:53 AM 21.9 °F - 18.0 °F 85% 30.29 in 10.0 mi Calm Calm - N/A   Clear
6:53 AM 28.0 °F - 21.9 °F 78% 30.28 in 10.0 mi Calm Calm - N/A   Clear
7:53 AM 36.0 °F - 25.0 °F 64% 30.27 in 10.0 mi Calm Calm - N/A   Clear
8:53 AM 45.0 °F 43.5 °F 23.0 °F 42% 30.26 in 10.0 mi NE 3.5 mph - N/A   Clear
9:53 AM 50.0 °F - 21.0 °F 32% 30.24 in 10.0 mi Calm Calm - N/A   Clear
10:53 AM 52.0 °F - 17.1 °F 25% 30.22 in 10.0 mi SSE 3.5 mph - N/A   Clear
11:53 AM 55.9 °F - 19.0 °F 24% 30.20 in 10.0 mi SSE 5.8 mph - N/A   Clear
12:53 PM 57.9 °F - 14.0 °F 18% 30.16 in 10.0 mi SW 8.1 mph - N/A   Clear
2:53 PM 61.0 °F - 19.0 °F 20% 30.09 in 10.0 mi Variable 5.8 mph - N/A   Clear
3:53 PM 63.0 °F - 16.0 °F 16% 30.06 in 10.0 mi SSW 13.8 mph 19.6 mph N/A   Clear
4:53 PM 62.1 °F - 17.1 °F 18% 30.03 in 10.0 mi SW 10.4 mph - N/A   Clear
5:53 PM 60.1 °F - 21.0 °F 22% 30.01 in 10.0 mi South 10.4 mph - N/A   Mostly Cloudy
6:53 PM 57.9 °F - 25.0 °F 28% 29.98 in 10.0 mi South 8.1 mph - N/A   Mostly Cloudy
7:53 PM 54.0 °F - 28.0 °F 37% 29.95 in 10.0 mi SSW 5.8 mph - N/A   Mostly Cloudy
8:53 PM 52.0 °F - 25.0 °F 35% 29.94 in 10.0 mi South 6.9 mph - N/A   Clear
9:53 PM 51.1 °F - 24.1 °F 35% 29.93 in 10.0 mi South 5.8 mph - N/A   Clear
10:53 PM 44.1 °F - 25.0 °F 47% 29.93 in 10.0 mi North - - N/A   Clear
11:53 PM 42.1 °F 39.2 °F 25.0 °F 51% 29.92 in 10.0 mi SE 4.6 mph - N/A   Clear